Location: Observatoire de l'Aigle
(47.0607°N, 71.3152°W)
Time: 01:30:45
(UTC-05:00)

Amateur Radio Satellites - All Passes

Search period start: 28 January 2015 01:00
Search period end: 29 January 2015 01:00
Location: Observatoire de l'Aigle, 47.0607°N, 71.3152°W

Satellite Date Start Highest point End Downlink Frequencies (MHz)
Time Altitude Azimuth
SWISSCUBE 28 Jan 01:08:57 01:13:15 33° 265° (W) 01:17:32 437.505
M-CUBED/EXP-1 PRIME 28 Jan 01:24:29 01:28:19 45° 67° (ENE) 01:31:54 437.505
BEESAT 28 Jan 01:25:33 01:29:31 25° 267° (W) 01:33:25 436.000
ITUPSAT 1 28 Jan 01:28:30 01:32:24 24° 267° (W) 01:36:15 437.325
Oscar 19 28 Jan 01:29:51 01:35:03 83° 103° (ESE) 01:40:12 437.125/150
ISS 28 Jan 01:30:10 01:33:15 35° 2° (N) 01:36:21 145.825
ITAMSAT 1 28 Jan 01:42:28 01:47:23 41° 97° (E) 01:52:20 435.822/435.867
GONETS M04 28 Jan 01:51:00 01:59:45 71° 283° (WNW) 02:08:30
BEESAT 2 28 Jan 01:57:19 02:00:45 26° 116° (ESE) 02:04:16 435.950
AUBIESAT-1 28 Jan 01:58:50 02:02:52 84° 250° (WSW) 02:06:34 437.475
DANDE 28 Jan 02:00:28 02:01:38 11° 73° (ENE) 02:03:30 436.750
MOZHAYETS 4 28 Jan 02:05:16 02:06:40 11° 58° (ENE) 02:08:17
STARS 28 Jan 02:07:46 02:12:09 57° 259° (W) 02:16:35 437.465
KKS-1 28 Jan 02:11:00 02:15:10 36° 263° (W) 02:19:20 437.445
BEESAT 3 28 Jan 02:12:32 02:16:23 40° 120° (ESE) 02:20:19 437.485
HORYU 2 28 Jan 02:12:40 02:15:29 17° 89° (E) 02:18:26 437.375
O/OREOS (USA 219) 28 Jan 02:22:48 02:27:10 44° 251° (WSW) 02:31:31 437.305
Gurwin Techsat 1B 28 Jan 02:30:13 02:35:34 75° 102° (ESE) 02:40:54 435.225
CUSAT 1 28 Jan 02:32:21 02:38:08 22° 82° (E) 02:44:18 437.405
RS-15 28 Jan 02:50:33 02:55:43 16° 98° (E) 03:01:41 29.354- 29.394
JAS-2 28 Jan 02:57:57 02:59:20 11° 85° (E) 03:01:08 435.910
M-CUBED/EXP-1 PRIME 28 Jan 03:00:46 03:03:31 17° 261° (W) 03:06:01 437.505
ISS 28 Jan 03:06:49 03:10:06 65° 20° (NNE) 03:13:25 145.825
Oscar 19 28 Jan 03:10:35 03:13:49 17° 302° (WNW) 03:16:52 437.125/150
ITAMSAT 1 28 Jan 03:22:13 03:26:48 31° 296° (WNW) 03:31:19 435.822/435.867
AIST 2 28 Jan 03:22:24 03:26:39 76° 125° (SE) 03:30:59 435.215
AO-7 28 Jan 03:29:24 03:37:15 44° 98° (E) 03:45:07 29.400- 29.500
BEESAT 2 28 Jan 03:34:52 03:38:50 41° 315° (NW) 03:42:50 435.950
DANDE 28 Jan 03:35:36 03:43:22 48° 91° (E) 03:51:35 436.750
MOZHAYETS 4 28 Jan 03:38:38 03:43:14 80° 75° (ENE) 03:47:51
HORYU 2 28 Jan 03:48:12 03:52:36 56° 288° (WNW) 03:56:56 437.375
BEESAT 3 28 Jan 03:51:00 03:54:39 29° 319° (NW) 03:58:19 437.485
GONETS M04 28 Jan 03:52:54 03:58:38 18° 308° (NW) 04:03:59
CUBESAT XI-V 28 Jan 03:53:18 03:54:52 12° 58° (ENE) 03:56:39 437.345
PCSat 28 Jan 03:57:51 04:02:47 38° 114° (ESE) 04:07:48 145.827
YUBILEINY 28 Jan 04:00:21 04:04:06 14° 46° (NE) 04:08:22 435.215
Gurwin Techsat 1B 28 Jan 04:11:20 04:15:02 19° 301° (WNW) 04:18:36 435.225
CUSAT 1 28 Jan 04:12:00 04:20:16 86° 100° (E) 04:28:42 437.405
PRISM 28 Jan 04:30:03 04:33:42 32° 68° (ENE) 04:37:25 437.425
JAS-2 28 Jan 04:39:52 04:45:25 74° 103° (ESE) 04:51:37 435.910
ISS 28 Jan 04:43:37 04:46:26 26° 219° (SW) 04:49:14 145.825
RS-15 28 Jan 04:55:22 05:06:03 66° 119° (ESE) 05:16:56 29.354- 29.394
STRAND 1 28 Jan 04:59:48 05:04:28 38° 67° (ENE) 05:09:13 437.568
AIST 2 28 Jan 05:02:31 05:05:48 20° 326° (NW) 05:09:02 435.215
Cubesat XI-IV 28 Jan 05:14:13 05:18:32 25° 92° (E) 05:22:56 437.490
BEESAT 2 28 Jan 05:16:46 05:18:11 11° 337° (NNW) 05:19:31 435.950
DANDE 28 Jan 05:18:52 05:26:56 49° 291° (WNW) 05:35:14 436.750
MOZHAYETS 4 28 Jan 05:19:09 05:21:09 12° 274° (W) 05:22:57
AO-7 28 Jan 05:22:15 05:30:15 51° 299° (WNW) 05:38:07 29.400- 29.500
CUBESAT XI-V 28 Jan 05:27:03 05:31:38 82° 75° (ENE) 05:36:17 437.345
CUTE-I 28 Jan 05:34:16 05:39:11 35° 96° (E) 05:44:07 437.470
PCSat 28 Jan 05:41:05 05:46:12 41° 313° (NW) 05:51:21 145.827
YUBILEINY 28 Jan 05:55:00 06:03:35 55° 73° (ENE) 06:12:12 435.215
CUSAT 1 28 Jan 05:57:20 06:04:21 28° 301° (WNW) 06:11:08 437.405
PRISM 28 Jan 06:05:50 06:09:18 25° 266° (W) 06:12:42 437.425
JAS-2 28 Jan 06:26:12 06:30:10 20° 299° (WNW) 06:34:14 435.910
STRAND 1 28 Jan 06:39:14 06:43:46 31° 265° (W) 06:48:17 437.568
HO-68 28 Jan 06:53:28 06:55:11 11° 81° (E) 06:57:26 435.675
Cubesat XI-IV 28 Jan 06:53:44 06:58:59 52° 291° (WNW) 07:04:10 437.490
CUBESAT XI-V 28 Jan 07:07:56 07:09:50 12° 275° (W) 07:11:29 437.345
DANDE 28 Jan 07:08:24 07:12:49 14° 314° (NW) 07:16:46 436.750
RS-15 28 Jan 07:08:31 07:19:03 49° 326° (NW) 07:29:44 29.354- 29.394
CUTE-I 28 Jan 07:14:22 07:19:18 37° 294° (WNW) 07:24:09 437.470
AO-7 28 Jan 07:16:48 07:21:16 15° 321° (NW) 07:25:24 29.400- 29.500
PCSat 28 Jan 07:28:35 07:31:12 13° 337° (NNW) 07:33:43 145.827
CUTE 1.7 + AOD 2 28 Jan 07:38:28 07:40:55 15° 88° (E) 07:43:33 437.475
YUBILEINY 28 Jan 07:52:17 08:00:11 38° 274° (W) 08:07:57 435.215
ANTELSAT 28 Jan 07:58:13 08:00:31 14° 59° (ENE) 08:03:00 437.575/2403.000
TIGRISAT 28 Jan 08:06:12 08:08:57 16° 61° (ENE) 08:11:52 435.000
BRITE-PL 28 Jan 08:07:22 08:12:56 50° 97° (E) 08:18:19 437.365/2234.400
GOMX 1 28 Jan 08:09:30 08:14:34 37° 94° (E) 08:19:28 467.674
SEEDS 28 Jan 08:10:05 08:13:41 27° 94° (E) 08:17:19 437.485
CINEMA 3 28 Jan 08:24:37 08:28:16 21° 89° (E) 08:31:56 145.822/145.860
DOVE 4 28 Jan 08:27:44 08:32:38 39° 95° (E) 08:37:23 437.250
DX 1 28 Jan 08:31:01 08:31:29 10° 86° (E) 08:32:13 434.975-435.025
NANOSAT C BR1 28 Jan 08:31:29 08:33:57 16° 61° (ENE) 08:36:34 145.865
BEESAT 2 28 Jan 08:36:55 08:38:33 12° 24° (NNE) 08:40:16 435.950
HO-68 28 Jan 08:37:30 08:44:36 62° 103° (ESE) 08:51:42 435.675
COMPASS 1 28 Jan 08:38:12 08:42:13 45° 98° (E) 08:46:14 437.405
QB50P2 28 Jan 08:44:17 08:47:26 21° 64° (ENE) 08:50:42 145.880/145.840
VERMONT LUNAR 28 Jan 08:44:47 08:46:23 13° 156° (SSE) 08:48:03 437.305
CANX-2 28 Jan 08:48:41 08:52:57 89° 98° (E) 08:57:11 2200.000
UWE-3 28 Jan 08:51:22 08:54:29 19° 89° (E) 08:57:40 435.000/436.395/437.385
BEESAT 3 28 Jan 08:51:54 08:54:20 15° 29° (NNE) 08:56:48 437.485
QB50P1 28 Jan 08:53:42 08:57:09 25° 66° (ENE) 09:00:42 145.935-145.965
UNISAT 6 28 Jan 08:56:25 09:00:52 44° 70° (ENE) 09:05:21 437.425
AAUSAT CUBESAT 2 28 Jan 09:05:23 09:09:35 79° 102° (ESE) 09:13:43 437.432
POLYITAN 1 28 Jan 09:07:10 09:11:02 33° 68° (ENE) 09:14:57 437.675
DELFI C3 28 Jan 09:07:48 09:11:29 33° 96° (E) 09:15:10 145.870
Oscar 11 28 Jan 09:10:06 09:14:15 43° 98° (E) 09:18:22 145.826/435.025
BUGSAT 1 28 Jan 09:11:47 09:15:17 28° 67° (ENE) 09:18:53 437.445
CUTE 1.7 + AOD 2 28 Jan 09:13:08 09:17:18 56° 288° (WNW) 09:21:25 437.475
VELOX 1 28 Jan 09:17:15 09:19:09 13° 87° (E) 09:21:18 145.980
RS-15 28 Jan 09:25:16 09:34:45 31° 358° (N) 09:44:31 29.354- 29.394
POPSAT HIP 1 28 Jan 09:27:31 09:31:40 52° 72° (ENE) 09:35:53 437.405
DUCHIFAT 1 28 Jan 09:30:52 09:35:03 55° 72° (ENE) 09:39:16 145.980
ANTELSAT 28 Jan 09:31:59 09:36:44 88° 256° (WSW) 09:41:28 437.575/2403.000
SO-50 28 Jan 09:35:20 09:38:40 21° 113° (ESE) 09:42:12 436.795
PHONESAT 2.4 28 Jan 09:35:44 09:38:00 16° 159° (SSE) 09:40:20 2401.200-2431.200
TIGRISAT 28 Jan 09:40:29 09:45:12 75° 257° (WSW) 09:49:57 435.000
CUBEBUG 2 28 Jan 09:44:15 09:48:55 72° 101° (E) 09:53:23 437.445
UKube-1 28 Jan 09:44:43 09:49:02 56° 101° (E) 09:53:19 .
SEEDS 28 Jan 09:45:49 09:49:33 30° 292° (WNW) 09:53:13 437.485
BRITE-PL 28 Jan 09:46:17 09:51:11 30° 296° (WNW) 09:55:54 437.365/2234.400
GOMX 1 28 Jan 09:47:39 09:52:39 36° 294° (WNW) 09:57:26 467.674
50 SAT 28 Jan 09:56:50 10:00:22 28° 94° (E) 10:03:53 437.505
ZACube-1 28 Jan 09:57:06 10:01:36 69° 101° (ESE) 10:05:57 437.345
CINEMA 3 28 Jan 10:01:04 10:05:52 51° 289° (WNW) 10:10:26 145.822/145.860
GONETS M04 28 Jan 10:02:01 10:07:13 17° 51° (NE) 10:12:47
AIST 2 28 Jan 10:03:37 10:07:02 23° 36° (NE) 10:10:29 435.215
DX 1 28 Jan 10:04:03 10:08:29 89° 299° (WNW) 10:12:54 434.975-435.025
NANOSAT C BR1 28 Jan 10:05:09 10:09:23 65° 259° (WSW) 10:13:41 145.865
DOVE 4 28 Jan 10:05:38 10:10:19 32° 294° (WNW) 10:14:46 437.250
HUMSAT D 28 Jan 10:09:21 10:13:31 51° 99° (E) 10:17:38 437.325/437.525
FUNcube-1 28 Jan 10:09:28 10:14:00 89° 135° (SE) 10:18:21 145.935
BEESAT 2 28 Jan 10:13:47 10:17:51 45° 46° (NE) 10:21:52 435.950
COMPASS 1 28 Jan 10:14:38 10:17:42 20° 296° (WNW) 10:20:39 437.405
QB50P2 28 Jan 10:18:58 10:23:06 46° 261° (W) 10:27:16 145.880/145.840
VERMONT LUNAR 28 Jan 10:20:53 10:23:51 26° 172° (S) 10:26:50 437.305
ESTCUBE 1 28 Jan 10:22:25 10:26:15 27° 94° (E) 10:30:08 437.505/2401.250
AISAT 28 Jan 10:22:57 10:27:27 58° 101° (E) 10:31:54 437.250
HO-68 28 Jan 10:25:47 10:31:59 32° 302° (WNW) 10:38:03 435.675
CANX-2 28 Jan 10:26:49 10:28:18 11° 301° (WNW) 10:29:36 2200.000
UWE-3 28 Jan 10:26:59 10:31:26 51° 289° (WNW) 10:35:43 435.000/436.395/437.385
QB50P1 28 Jan 10:28:55 10:32:55 37° 263° (W) 10:36:55 145.935-145.965
BEESAT 3 28 Jan 10:29:05 10:33:16 69° 50° (NE) 10:37:23 437.485
UNISAT 6 28 Jan 10:34:00 10:37:52 24° 268° (W) 10:41:39 437.425
AAUSAT CUBESAT 2 28 Jan 10:42:52 10:44:43 12° 300° (WNW) 10:46:24 437.432
DELFI C3 28 Jan 10:43:18 10:46:37 24° 293° (WNW) 10:49:51 145.870
POLYITAN 1 28 Jan 10:43:20 10:47:02 27° 266° (W) 10:50:43 437.675
Oscar 11 28 Jan 10:46:52 10:50:12 21° 296° (WNW) 10:53:25 145.826/435.025
BUGSAT 1 28 Jan 10:47:07 10:50:45 29° 265° (W) 10:54:25 437.445
VELOX 1 28 Jan 10:51:52 10:56:23 76° 286° (WNW) 11:00:52 145.980
SPROUT 28 Jan 10:55:00 10:57:19 14° 88° (E) 10:59:49 437.525
PCSat 28 Jan 10:59:41 11:03:05 17° 29° (NNE) 11:06:36 145.827
AIST 1 28 Jan 11:02:25 11:06:36 61° 96° (E) 11:10:50
CUBEBUG 1 28 Jan 11:03:41 11:08:07 64° 101° (E) 11:12:33 437.445
POPSAT HIP 1 28 Jan 11:05:02 11:07:57 17° 270° (W) 11:10:45 437.405
DUCHIFAT 1 28 Jan 11:08:35 11:11:20 16° 271° (W) 11:13:55 145.980
Oscar 19 28 Jan 11:11:47 11:15:55 25° 63° (ENE) 11:20:10 437.125/150
PHONESAT 2.4 28 Jan 11:12:49 11:15:58 28° 175° (S) 11:19:09 2401.200-2431.200
ANTELSAT 28 Jan 11:12:51 11:14:19 11° 275° (W) 11:15:31 437.575/2403.000
SO-50 28 Jan 11:14:15 11:18:49 61° 311° (NW) 11:23:34 436.795
UKube-1 28 Jan 11:21:48 11:24:50 18° 298° (WNW) 11:27:45 .
CUBEBUG 2 28 Jan 11:22:14 11:25:05 16° 300° (WNW) 11:27:45 437.445
ITAMSAT 1 28 Jan 11:27:15 11:29:49 14° 56° (NE) 11:32:36 435.822/435.867
50 SAT 28 Jan 11:31:57 11:35:29 28° 293° (WNW) 11:38:55 437.505
ZACube-1 28 Jan 11:34:45 11:37:28 16° 299° (WNW) 11:40:01 437.345
TISAT 1 28 Jan 11:34:53 11:38:49 34° 96° (E) 11:42:46 437.305
RS-15 28 Jan 11:40:07 11:50:41 45° 31° (NNE) 12:01:46 29.354- 29.394
AIST 2 28 Jan 11:41:48 11:46:04 64° 237° (WSW) 11:50:15 435.215
DX 1 28 Jan 11:42:17 11:44:08 12° 302° (WNW) 11:45:49 434.975-435.025
HUMSAT D 28 Jan 11:46:01 11:49:00 18° 297° (WNW) 11:51:50 437.325/437.525
FUNcube-1 28 Jan 11:47:46 11:49:41 12° 302° (WNW) 11:51:24 145.935
BEESAT 2 28 Jan 11:52:29 11:55:51 23° 245° (WSW) 11:59:07 435.950
GONETS M04 28 Jan 11:57:26 12:06:08 70° 77° (ENE) 12:14:48
VERMONT LUNAR 28 Jan 11:58:32 12:01:29 25° 189° (S) 12:04:26 437.305
ESTCUBE 1 28 Jan 11:59:04 12:03:14 36° 292° (WNW) 12:07:21 437.505/2401.250
AISAT 28 Jan 12:00:32 12:03:42 19° 298° (WNW) 12:06:45 437.250
BEESAT 3 28 Jan 12:08:30 12:10:57 15° 248° (WSW) 12:13:15 437.485
Gurwin Techsat 1B 28 Jan 12:16:00 12:20:11 25° 62° (ENE) 12:24:29 435.225
SPROUT 28 Jan 12:29:36 12:33:57 64° 286° (WNW) 12:38:14 437.525
VELOX 1 28 Jan 12:31:05 12:32:16 11° 303° (WNW) 12:33:13 145.980
CUBEBUG 1 28 Jan 12:41:12 12:44:05 17° 298° (WNW) 12:46:49 437.445
AO-7 28 Jan 12:42:15 12:48:02 22° 46° (NE) 12:54:04 29.400- 29.500
PCSat 28 Jan 12:42:18 12:47:42 60° 52° (NE) 12:53:05 145.827
AIST 1 28 Jan 12:42:20 12:44:48 14° 296° (WNW) 12:47:07
Oscar 19 28 Jan 12:49:57 12:55:01 52° 260° (W) 13:00:06 437.125/150
PHONESAT 2.4 28 Jan 12:51:03 12:54:02 24° 192° (SSW) 12:57:02 2401.200-2431.200
SO-50 28 Jan 12:57:19 13:00:23 17° 334° (NNW) 13:03:27 436.795
ITAMSAT 1 28 Jan 13:03:26 13:08:37 83° 74° (ENE) 13:13:51 435.822/435.867
SWISSCUBE 28 Jan 13:05:41 13:10:21 51° 99° (E) 13:15:01 437.505
CUSAT 1 28 Jan 13:10:09 13:14:13 17° 50° (NE) 13:17:56 437.405
TISAT 1 28 Jan 13:10:56 13:14:33 26° 294° (WNW) 13:18:07 437.305
HORYU 2 28 Jan 13:13:55 13:17:28 24° 65° (ENE) 13:21:08 437.375
BEESAT 28 Jan 13:21:39 13:26:26 67° 102° (ESE) 13:31:11 436.000
ITUPSAT 1 28 Jan 13:24:52 13:29:40 70° 103° (ESE) 13:34:26 437.325
VERMONT LUNAR 28 Jan 13:37:30 13:38:56 12° 205° (SSW) 13:40:17 437.305
RS-15 28 Jan 13:52:51 14:04:09 77° 237° (WSW) 14:15:57 29.354- 29.394
Gurwin Techsat 1B 28 Jan 13:54:41 13:59:53 54° 260° (W) 14:05:06 435.225
GONETS M04 28 Jan 13:55:10 14:02:22 29° 278° (W) 14:09:18
STARS 28 Jan 13:55:22 13:58:47 22° 92° (E) 14:02:16 437.465
KKS-1 28 Jan 13:59:00 14:03:08 34° 96° (E) 14:07:14 437.445
DANDE 28 Jan 14:17:33 14:24:24 42° 66° (ENE) 14:29:42 436.750
PCSat 28 Jan 14:26:26 14:30:46 24° 251° (WSW) 14:34:58 145.827
AO-7 28 Jan 14:31:19 14:39:39 75° 68° (ENE) 14:48:02 29.400- 29.500
PHONESAT 2.4 28 Jan 14:31:38 14:31:53 10° 208° (SSW) 14:32:04 2401.200-2431.200
M-CUBED/EXP-1 PRIME 28 Jan 14:39:05 14:41:21 17° 99° (E) 14:43:43 437.505
SWISSCUBE 28 Jan 14:44:12 14:47:57 23° 297° (WNW) 14:51:35 437.505
ITAMSAT 1 28 Jan 14:46:01 14:48:54 14° 274° (W) 14:51:33 435.822/435.867
HORYU 2 28 Jan 14:49:41 14:53:58 42° 262° (W) 14:58:15 437.375
CUSAT 1 28 Jan 14:52:02 14:58:52 84° 77° (ENE) 15:03:54 437.405
JAS-2 28 Jan 14:56:10 15:01:13 42° 68° (ENE) 15:06:07 435.910
BEESAT 28 Jan 15:00:35 15:03:51 18° 300° (WNW) 15:06:58 436.000
O/OREOS (USA 219) 28 Jan 15:00:54 15:03:13 14° 100° (E) 15:05:46 437.305
ITUPSAT 1 28 Jan 15:03:56 15:07:06 17° 300° (WNW) 15:10:08 437.325
AUBIESAT-1 28 Jan 15:12:27 15:15:35 38° 104° (ESE) 15:18:47 437.475
CUTE-I 28 Jan 15:22:42 15:25:10 14° 55° (NE) 15:27:51 437.470
STARS 28 Jan 15:31:15 15:35:31 43° 290° (WNW) 15:39:42 437.465
MOZHAYETS 4 28 Jan 15:32:07 15:34:46 16° 88° (E) 15:37:35
KKS-1 28 Jan 15:35:49 15:39:43 28° 294° (WNW) 15:43:31 437.445
DANDE 28 Jan 16:01:24 16:07:45 36° 273° (W) 16:12:38 436.750
RS-15 28 Jan 16:06:57 16:15:01 21° 259° (WSW) 16:22:39 29.354- 29.394
M-CUBED/EXP-1 PRIME 28 Jan 16:13:32 16:16:31 30° 296° (WNW) 16:19:30 437.505
SO-50 28 Jan 16:22:49 16:25:35 15° 23° (NNE) 16:28:28 436.795
AO-7 28 Jan 16:26:16 16:33:19 28° 269° (W) 16:40:09 29.400- 29.500
CUSAT 1 28 Jan 16:36:56 16:40:37 16° 283° (WNW) 16:43:36 437.405
O/OREOS (USA 219) 28 Jan 16:37:39 16:42:08 68° 297° (WNW) 16:46:40 437.305
Cubesat XI-IV 28 Jan 16:39:05 16:44:14 53° 70° (ENE) 16:49:27 437.490
JAS-2 28 Jan 16:41:53 16:46:35 28° 266° (W) 16:51:01 435.910
AUBIESAT-1 28 Jan 16:48:16 16:50:20 15° 301° (WNW) 16:52:18 437.475
CUTE-I 28 Jan 16:59:09 17:04:27 76° 73° (ENE) 17:09:50 437.470
MOZHAYETS 4 28 Jan 17:07:59 17:12:31 63° 287° (WNW) 17:17:02
YUBILEINY 28 Jan 17:11:20 17:12:55 11° 70° (ENE) 17:15:11 435.215
CUBESAT XI-V 28 Jan 17:21:50 17:24:50 17° 89° (E) 17:28:00 437.345
HO-68 28 Jan 17:25:32 17:29:23 16° 47° (NE) 17:33:29 435.675
PRISM 28 Jan 17:44:59 17:48:47 34° 97° (E) 17:52:37 437.425
BRITE-PL 28 Jan 17:46:09 17:48:19 13° 54° (NE) 17:50:47 437.365/2234.400
SO-50 28 Jan 18:02:34 18:07:20 48° 45° (NE) 18:12:07 436.795
CANX-2 28 Jan 18:11:50 18:13:24 12° 60° (ENE) 18:15:08 2200.000
Cubesat XI-IV 28 Jan 18:20:25 18:24:42 24° 269° (W) 18:28:55 437.490
O/OREOS (USA 219) 28 Jan 18:20:44 18:22:33 12° 319° (NW) 18:24:13 437.305
CUTE 1.7 + AOD 2 28 Jan 18:34:37 18:37:29 18° 64° (ENE) 18:40:28 437.475
CUTE-I 28 Jan 18:41:52 18:45:15 16° 273° (W) 18:48:26 437.470
STRAND 1 28 Jan 18:45:47 18:50:57 71° 102° (ESE) 18:56:06 437.568
CUBESAT XI-V 28 Jan 18:58:07 19:02:46 60° 287° (WNW) 19:07:23 437.345
YUBILEINY 28 Jan 18:59:34 19:07:55 56° 91° (E) 19:16:23 435.215
SEEDS 28 Jan 19:05:21 19:09:04 30° 68° (ENE) 19:12:48 437.485
HO-68 28 Jan 19:08:52 19:15:53 63° 68° (ENE) 19:22:57 435.675
CUBEBUG 2 28 Jan 19:11:38 19:13:45 13° 58° (ENE) 19:16:02 437.445
GOMX 1 28 Jan 19:20:05 19:25:02 52° 71° (ENE) 19:30:19 467.674
PRISM 28 Jan 19:20:47 19:24:12 25° 294° (WNW) 19:27:33 437.425
BRITE-PL 28 Jan 19:20:48 19:25:51 71° 74° (ENE) 19:31:22 437.365/2234.400
ZACube-1 28 Jan 19:23:09 19:24:36 12° 58° (ENE) 19:26:16 437.345
DX 1 28 Jan 19:28:43 19:31:08 15° 60° (ENE) 19:33:43 434.975-435.025
CINEMA 3 28 Jan 19:28:55 19:33:08 29° 65° (ENE) 19:37:30 145.822/145.860
COMPASS 1 28 Jan 19:32:34 19:36:37 47° 72° (ENE) 19:40:42 437.405
FUNcube-1 28 Jan 19:34:17 19:36:41 15° 60° (ENE) 19:39:15 145.935
DOVE 4 28 Jan 19:35:46 19:40:42 53° 71° (ENE) 19:45:52 437.250
SO-50 28 Jan 19:43:27 19:47:46 30° 244° (WSW) 19:51:58 436.795
CANX-2 28 Jan 19:44:27 19:48:46 87° 250° (WSW) 19:53:06 2200.000
UWE-3 28 Jan 19:51:19 19:55:02 24° 65° (ENE) 19:58:51 435.000/436.395/437.385
AISAT 28 Jan 19:51:29 19:52:25 11° 57° (ENE) 19:53:34 437.250
DELFI C3 28 Jan 19:59:04 20:02:43 32° 69° (ENE) 20:06:23 145.870
AAUSAT CUBESAT 2 28 Jan 19:59:15 20:03:28 79° 77° (ENE) 20:07:42 437.432
Oscar 11 28 Jan 20:07:42 20:11:54 50° 72° (ENE) 20:16:09 145.826/435.025
CUTE 1.7 + AOD 2 28 Jan 20:08:53 20:13:06 53° 260° (W) 20:17:19 437.475
VELOX 1 28 Jan 20:17:50 20:20:47 18° 62° (ENE) 20:23:53 145.980
STRAND 1 28 Jan 20:26:03 20:29:41 19° 300° (WNW) 20:33:10 437.568
CUBEBUG 1 28 Jan 20:30:48 20:31:30 10° 57° (ENE) 20:32:24 437.445
SEEDS 28 Jan 20:41:08 20:44:54 29° 266° (W) 20:48:37 437.485
UKube-1 28 Jan 20:42:34 20:46:52 71° 73° (ENE) 20:51:13 .
CUBEBUG 2 28 Jan 20:45:00 20:49:46 85° 75° (ENE) 20:54:36 437.445
50 SAT 28 Jan 20:47:18 20:50:50 28° 67° (ENE) 20:54:25 437.505
ZACube-1 28 Jan 20:55:40 21:00:17 79° 75° (ENE) 21:04:56 437.345
YUBILEINY 28 Jan 20:57:13 21:05:12 38° 294° (WNW) 21:13:07 435.215
HO-68 28 Jan 20:58:01 21:04:10 29° 268° (W) 21:10:10 435.675
GOMX 1 28 Jan 20:59:21 21:03:32 24° 271° (W) 21:07:48 467.674
BRITE-PL 28 Jan 21:01:34 21:05:06 18° 275° (W) 21:08:35 437.365/2234.400
DX 1 28 Jan 21:02:35 21:06:55 70° 257° (WSW) 21:11:18 434.975-435.025
HUMSAT D 28 Jan 21:04:07 21:08:22 55° 73° (ENE) 21:12:40 437.325/437.525
CINEMA 3 28 Jan 21:05:30 21:10:11 41° 264° (W) 21:14:58 145.822/145.860
AIST 1 28 Jan 21:06:57 21:10:18 22° 68° (ENE) 21:13:45
FUNcube-1 28 Jan 21:07:52 21:12:29 81° 257° (WSW) 21:17:08 145.935
COMPASS 1 28 Jan 21:09:38 21:12:39 18° 270° (W) 21:15:33 437.405
DOVE 4 28 Jan 21:14:46 21:18:50 23° 271° (W) 21:22:56 437.250
ANTELSAT 28 Jan 21:22:43 21:25:22 16° 88° (E) 21:28:09 437.575/2403.000
AISAT 28 Jan 21:23:53 21:28:20 76° 75° (ENE) 21:32:50 437.250
ESTCUBE 1 28 Jan 21:25:06 21:29:12 36° 68° (ENE) 21:33:19 437.505/2401.250
ISS 28 Jan 21:25:52 21:28:16 19° 139° (SE) 21:30:44 145.825
UWE-3 28 Jan 21:26:51 21:31:21 45° 262° (W) 21:35:54 435.000/436.395/437.385
TIGRISAT 28 Jan 21:30:34 21:33:38 18° 89° (E) 21:36:46 435.000
DELFI C3 28 Jan 21:34:38 21:38:02 25° 267° (W) 21:41:23 145.870
AAUSAT CUBESAT 2 28 Jan 21:38:33 21:39:47 11° 274° (W) 21:40:47 437.432
Oscar 11 28 Jan 21:45:22 21:48:26 18° 270° (W) 21:51:23 145.826/435.025
NANOSAT C BR1 28 Jan 21:48:27 21:51:14 17° 90° (E) 21:54:08 145.865
SPROUT 28 Jan 21:52:23 21:55:12 18° 63° (ENE) 21:58:10 437.525
VELOX 1 28 Jan 21:52:39 21:57:01 57° 259° (W) 22:01:26 145.980
QB50P2 28 Jan 22:01:55 22:05:22 24° 93° (E) 22:08:54 145.880/145.840
CUBEBUG 1 28 Jan 22:02:50 22:07:10 78° 75° (ENE) 22:11:35 437.445
QB50P1 28 Jan 22:11:17 22:15:02 29° 95° (E) 22:18:48 145.935-145.965
UKube-1 28 Jan 22:21:32 22:23:38 13° 272° (W) 22:25:31 .
UNISAT 6 28 Jan 22:22:14 22:26:42 61° 101° (E) 22:31:03 437.425
50 SAT 28 Jan 22:22:15 22:25:55 29° 265° (W) 22:29:34 437.505
CUBEBUG 2 28 Jan 22:25:02 22:27:13 13° 275° (W) 22:29:10 437.445
POLYITAN 1 28 Jan 22:25:26 22:29:32 40° 97° (E) 22:33:37 437.675
BUGSAT 1 28 Jan 22:26:09 22:29:59 32° 96° (E) 22:33:51 437.445
TISAT 1 28 Jan 22:30:17 22:34:13 38° 69° (ENE) 22:38:13 437.305
ZACube-1 28 Jan 22:35:06 22:37:19 13° 274° (W) 22:39:20 437.345
SWISSCUBE 28 Jan 22:40:59 22:42:50 12° 57° (ENE) 22:44:54 437.505
HUMSAT D 28 Jan 22:41:41 22:44:34 17° 271° (W) 22:47:19 437.325/437.525
AIST 1 28 Jan 22:44:06 22:48:10 39° 267° (W) 22:52:14
POPSAT HIP 1 28 Jan 22:45:40 22:49:59 65° 101° (ESE) 22:54:16 437.405
DUCHIFAT 1 28 Jan 22:48:41 22:53:00 69° 102° (ESE) 22:57:16 145.980
BEESAT 28 Jan 22:55:54 22:58:38 16° 59° (ENE) 23:01:31 436.000
ANTELSAT 28 Jan 22:58:14 23:02:42 59° 287° (WNW) 23:07:00 437.575/2403.000
ITUPSAT 1 28 Jan 22:59:16 23:02:08 17° 60° (ENE) 23:05:10 437.325
ISS 28 Jan 23:01:11 23:04:28 81° 335° (NNW) 23:07:48 145.825
ESTCUBE 1 28 Jan 23:02:21 23:06:11 26° 267° (W) 23:09:57 437.505/2401.250
AISAT 28 Jan 23:03:34 23:05:37 13° 273° (W) 23:07:28 437.250
TIGRISAT 28 Jan 23:06:24 23:10:47 50° 289° (WNW) 23:15:01 435.000
GONETS M04 28 Jan 23:10:38 23:14:58 16° 74° (ENE) 23:19:49
NANOSAT C BR1 28 Jan 23:23:16 23:27:29 52° 289° (WNW) 23:31:39 145.865
SPROUT 28 Jan 23:26:42 23:30:57 56° 260° (W) 23:35:15 437.525
QB50P2 28 Jan 23:37:26 23:41:27 37° 291° (WNW) 23:45:24 145.880/145.840
CUBEBUG 1 28 Jan 23:42:30 23:44:14 12° 274° (W) 23:45:44 437.445
QB50P1 28 Jan 23:47:05 23:50:57 31° 292° (WNW) 23:54:43 145.935-145.965
UNISAT 6 29 Jan 00:00:05 00:03:04 17° 299° (WNW) 00:05:53 437.425
BUGSAT 1 29 Jan 00:01:44 00:05:27 28° 293° (WNW) 00:09:05 437.445
POLYITAN 1 29 Jan 00:01:50 00:05:17 23° 295° (WNW) 00:08:39 437.675
TISAT 1 29 Jan 00:06:49 00:10:13 22° 267° (W) 00:13:34 437.305
SWISSCUBE 29 Jan 00:15:16 00:20:02 82° 74° (ENE) 00:24:49 437.505
POPSAT HIP 1 29 Jan 00:22:47 00:25:27 16° 299° (WNW) 00:27:58 437.405
DUCHIFAT 1 29 Jan 00:25:54 00:28:24 15° 299° (WNW) 00:30:45 145.980
BEESAT 29 Jan 00:31:12 00:35:58 78° 258° (WSW) 00:40:46 436.000
AUBIESAT-1 29 Jan 00:32:02 00:33:17 12° 57° (ENE) 00:34:40 437.475
ITUPSAT 1 29 Jan 00:34:46 00:39:32 74° 258° (WSW) 00:44:19 437.325
ISS 29 Jan 00:38:11 00:41:17 36° 356° (N) 00:44:23 145.825
